Regional Weather Roundup
Issued by NWS

Home | Current Version | Previous Version | Text Only | Print | Product List | Glossary Off
Versions: 1 2 3 4 5 6 7 8 9 10 11 12 13 14 15 16 17 18 19 20 21 22 23 24 25 26 27 28 29 30 31 32 33 34 35 36 37 38 39 40 41 42 43 44 45 46 47 48 49 50

000
ASUS43 KOAX 121002
RWRNE

WEATHER ROUNDUP FOR NEBRASKA
NATIONAL WEATHER SERVICE OMAHA NE
500 AM CDT SAT JUL 12 2014

NOTES: SATELLITE DATA IS BEING USED TO AUGMENT CLOUD COVER ABOVE
       12000 FEET.
       "FAIR" INDICATES FEW OR NO CLOUDS BELOW 12,000 FEET WITH NO
       SIGNIFICANT WEATHER AND/OR OBSTRUCTIONS TO VISIBILITY.

  * THESE STATIONS DO NOT REPORT WEATHER SUCH AS RAIN...SNOW OR FOG.

NEZ001>004-019>022-054>056-121100-
NEBRASKA PANHANDLE

CITY           SKY/WX    TMP DP  RH WIND       PRES   REMARKS
SCOTTSBLUFF    MOCLDY    61  59  93 W5        30.14F
ALLIANCE       MOCLDY    59  58  96 W8        30.10F
CHADRON        CLOUDY    63  60  90 W5        30.12S
KIMBALL        CLOUDY    62  61  97 NW6       30.16S
SIDNEY         CLOUDY    64  61  90 NW10      30.14S
$$

NEZ057>060-069>072-079>082-121100-
SOUTHWEST NEBRASKA

CITY           SKY/WX    TMP DP  RH WIND       PRES   REMARKS
NORTH PLATTE   CLOUDY    67  64  90 CALM      30.02S
IMPERIAL       CLOUDY    70  67  90 N3        30.06F
LEXINGTON      CLOUDY    73  71  92 E13       30.01S
MCCOOK         CLOUDY    72  69  90 N5        30.01S
OGALLALA       CLOUDY    66  65  95 N6        30.06S
$$

NEZ005>010-023>029-035>040-094-121100-
NORTH CENTRAL NEBRASKA

CITY           SKY/WX    TMP DP  RH WIND       PRES   REMARKS
VALENTINE      CLOUDY    67  64  90 NW5       30.03F
AINSWORTH      CLOUDY    67  66  99 CALM      30.02F
BROKEN BOW     CLOUDY    68  66  93 SE8       30.01F
O`NEILL        LGT RAIN  67  63  87 E12       30.01F
ORD            LGT RAIN  68  66  93 E12       30.01F
THEDFORD       CLOUDY    67  66  96 W3        30.04S
$$

NEZ041-046>049-061>064-073>077-083>087-121100-
SOUTH CENTRAL NEBRASKA

CITY           SKY/WX    TMP DP  RH WIND       PRES   REMARKS
GRAND ISLAND   CLOUDY    72  67  84 VRB5      30.02R
AURORA         CLOUDY    73  68  82 CALM      30.01S
HASTINGS       CLOUDY    72  62  71 CALM      30.01R
HEBRON         CLOUDY    76  64  67 SW6       30.00S
HOLDREGE       CLOUDY    73  59  61 SW6       30.00S
KEARNEY *      CLOUDY    73  61  64 CALM      30.02S
YORK           CLOUDY    70  68  94 E5        30.02S
$$

NEZ011>018-030>034-042>045-121100-
NORTHEAST NEBRASKA

CITY           SKY/WX    TMP DP  RH WIND       PRES   REMARKS
NORFOLK        LGT RAIN  69  66  90 N6        30.05R
ALBION         LGT RAIN  68  67  94 NE3       30.05F
BLAIR          CLOUDY    72  67  85 NE7       30.04R
TEKAMAH        CLOUDY    71  68  90 NE9       30.04R
WAYNE          LGT RAIN  69  68  97 CALM      30.05R
$$

NEZ050>053-065>068-078-088>093-121100-
SOUTHEAST NEBRASKA

CITY           SKY/WX    TMP DP  RH WIND       PRES   REMARKS
LINCOLN        CLOUDY    75  68  78 N6        30.02R
OMAHA EPPLEY   CLOUDY    75  68  78 VRB3      30.03R
BEATRICE       CLOUDY    74  64  71 S3        30.00S
FALLS CITY     CLOUDY    77  69  76 S7        30.00S
NEBRASKA CITY  CLOUDY    74  67  79 CALM      30.02R
PLATTSMOUTH    CLOUDY    75  69  82 NE3       30.02S
$$

NEZ044-045-051>053-067-121100-
OMAHA AREA

CITY           SKY/WX    TMP DP  RH WIND       PRES   REMARKS
OMAHA EPPLEY   CLOUDY    75  68  78 VRB3      30.03R
BLAIR          CLOUDY    72  67  85 NE7       30.04R
MILLARD        CLOUDY    75  72  90 CALM      30.02S
OFFUTT AFB     CLOUDY    75  75 100 NE7       30.02R
PLATTSMOUTH    CLOUDY    75  69  82 NE3       30.02S
WAHOO          FAIR      73  69  87 N7        30.03R
$$


USA.gov is the U.S. government's official web portal to all federal, state and local government web resources and services.